Location: Luxembourg
(49.6117°N, 6.1300°E)
Time: 23:15:14
(UTC+01:00)

X-37B - Pass Details

Date: 11 December 2021
Orbit: 334 x 337 km, 45.0° (Epoch: 11 January)

Event Time Altitude Azimuth Distance (km) Brightness Sun altitude
Rises 19:34:08 0° 260° (W) 2,104 5.6 -27.7°
Reaches altitude 10° 19:36:15 10° 249° (WSW) 1,266 4.1 -28.1°
Enters shadow 19:36:18 10° 249° (WSW) 1,249 4.0 -28.1°
